Location: Asheville, NC
(35.6000°N, 82.5500°W)
Time: 14:22:18
(UTC-05:00)

SEEDS - Pass Details

Date: 03 January 2018
Orbit: 586 x 606 km, 97.5° (Epoch: 19 January)

Event Time Altitude Azimuth Distance (km) Brightness Sun altitude
Rises 18:57:22 0° 163° (SSE) 2,844 ? -17.4°
Reaches altitude 10° 18:59:31 10° 162° (SSE) 1,945 ? -17.8°
Maximum altitude 19:03:44 76° 78° (ENE) 627 ? -18.6°
Drops below altitude 10° 19:07:59 10° 352° (N) 1,955 ? -19.4°
Sets 19:10:10 0° 351° (N) 2,860 ? -19.9°
